Wind_Speed
64 63 61 59 57 54 51 49 47 45 43 40 39 39 39 38 36 33 32 32 33 34 36 37 38 38 39 40 40 41 42 43 45 46 47 48 48 49 50 52 53 54 56 57 58 60 62 65 68 70 72 75 77 81 86 89 92 96 100 102 102 104 106 107 109 110 109 109 107 104 103 104 104 103 101 100 98 94 91 88 87 86 82 79 75 71 70
67 65 63 59 55 51 48 46 44 42 41 38 37 36 36 36 34 32 31 31 31 32 33 35 35 36 37 38 39 39 40 41 42 44 45 46 46 48 49 50 52 53 55 56 57 58 60 61 64 67 69 71 74 79 84 87 91 94 98 100 101 102 105 107 109 111 112 112 110 107 105 105 104 103 104 103 102 97 92 89 87 85 83 81 77 73 72
71 67 63 58 54 50 47 44 42 41 39 38 36 35 35 35 34 32 30 29 30 31 31 32 33 34 35 36 37 37 38 39 40 42 43 45 46 47 48 49 51 53 54 56 56 57 57 58 62 65 66 67 70 75 81 85 89 92 95 99 100 102 105 107 108 111 113 113 112 109 108 107 106 107 108 107 104 100 94 91 89 86 83 82 79 76 76
73 69 64 58 54 50 47 44 41 40 38 37 35 34 33 33 33 32 30 29 29 29 30 31 32 33 34 34 35 36 37 38 40 41 42 44 45 46 47 49 51 52 54 55 56 56 56 56 58 62 63 64 65 70 77 83 86 89 92 97 100 101 104 105 107 110 112 113 113 111 110 111 110 110 109 106 103 100 97 95 91 89 87 85 81 79 78
75 70 64 59 55 51 47 44 41 40 38 36 34 32 31 31 31 31 30 30 29 29 29 30 31 32 33 33 34 34 36 37 39 40 42 43 44 46 47 48 50 52 52 53 53 53 53 53 55 59 61 61 62 66 72 78 83 86 89 94 98 101 103 104 106 109 112 114 114 113 113 114 112 108 104 103 103 101 99 97 93 91 90 87 85 82 80
76 70 64 59 55 52 48 45 41 39 37 34 32 30 29 29 29 29 29 29 29 29 29 30 31 32 33 34 34 34 35 37 37 39 40 41 43 44 46 48 50 50 49 50 50 49 49 49 51 55 57 58 59 63 68 73 78 82 86 90 95 99 102 104 105 109 112 114 115 114 114 114 112 108 103 102 102 101 99 98 96 93 91 88 87 85 83
76 70 65 60 56 52 49 45 42 38 36 33 31 29 27 27 27 28 28 28 29 29 29 30 31 32 33 34 34 34 35 36 37 37 38 38 40 42 45 47 48 47 45 46 46 45 45 46 47 50 54 56 58 60 64 68 73 78 82 86 91 97 100 102 105 108 111 114 114 114 114 113 112 109 105 103 103 102 101 100 98 95 91 90 89 86 85
76 70 65 60 56 52 49 46 42 39 35 32 30 28 27 26 26 26 26 27 27 28 29 29 30 32 33 34 35 36 36 36 36 35 35 35 36 39 44 46 44 42 41 40 40 39 40 42 43 45 49 53 55 57 59 63 69 74 78 81 86 92 97 100 103 107 111 113 113 113 113 112 112 111 109 105 103 103 102 101 100 97 93 92 91 88 87
76 70 65 60 57 53 49 45 42 39 35 32 30 28 27 26 25 25 25 25 26 27 28 29 30 31 33 35 36 37 36 35 34 33 33 32 34 38 42 43 42 40 37 36 34 33 33 37 39 42 45 49 51 53 55 59 64 70 73 76 80 87 93 97 101 106 111 113 114 113 112 112 113 112 111 108 103 103 103 102 101 99 95 93 93 90 88
76 70 65 61 57 52 49 45 41 38 35 33 30 28 27 26 25 24 24 24 25 26 27 28 29 31 33 35 36 36 36 35 34 33 32 31 32 37 40 40 40 38 34 32 30 28 29 32 36 39 41 43 46 49 52 54 59 65 69 72 76 82 89 94 98 104 110 114 115 113 113 113 113 112 112 109 105 102 102 102 102 102 99 97 96 92 89
76 70 65 61 57 52 48 44 40 37 35 33 30 28 27 26 25 24 24 24 24 25 26 27 28 31 33 35 36 35 34 34 33 33 32 31 32 36 38 37 38 36 31 28 26 25 25 28 32 35 37 38 41 45 48 51 55 60 64 68 72 79 85 91 95 101 108 114 116 114 113 112 111 111 111 110 107 103 101 102 104 104 103 100 97 92 89
76 70 66 62 57 52 47 44 40 37 34 32 30 28 27 26 25 24 23 24 24 25 26 27 29 31 33 34 35 35 34 32 31 30 29 29 32 35 35 35 34 32 27 24 22 22 22 25 28 31 33 35 37 41 44 47 51 55 59 64 70 75 81 87 91 98 106 113 116 115 113 110 109 111 111 111 109 105 101 103 106 106 104 101 96 92 91
75 71 67 62 57 51 47 43 40 37 34 31 29 28 27 26 26 25 24 24 24 25 26 28 29 31 32 33 34 34 33 32 30 28 26 28 31 33 33 32 30 27 24 21 20 20 20 22 24 27 30 32 34 37 41 45 48 52 56 61 67 72 77 83 89 95 103 110 113 114 111 109 109 110 111 112 110 106 103 103 106 106 105 102 98 94 94
75 71 67 62 56 51 47 44 40 37 34 31 29 28 27 26 26 25 25 25 25 26 26 27 29 30 32 33 33 34 33 32 29 27 25 26 30 32 31 29 27 23 20 18 18 18 18 19 22 24 27 29 32 35 39 42 45 49 53 59 64 69 75 80 85 91 99 105 109 110 110 110 110 110 112 113 111 108 106 104 104 105 105 103 99 96 95
75 71 67 61 56 51 47 44 41 38 34 32 30 28 27 26 26 26 26 25 25 26 26 27 29 30 31 33 33 34 33 32 29 27 26 27 29 31 30 28 25 21 17 16 15 16 16 18 20 23 25 27 29 33 36 39 42 47 52 58 64 68 73 77 81 87 95 101 104 107 109 110 111 113 114 112 110 109 108 105 104 105 105 104 101 98 97
75 71 66 60 56 51 46 43 41 38 35 33 31 30 29 28 27 27 27 26 26 27 27 28 30 31 32 33 34 34 34 32 30 28 27 28 29 30 29 27 24 19 15 13 13 13 15 17 19 21 23 25 28 31 34 37 40 46 51 56 61 66 69 73 77 83 91 97 100 103 105 108 110 114 114 111 109 109 108 106 105 105 106 105 103 100 98
75 71 65 60 55 50 46 42 40 38 36 33 32 31 30 29 28 28 28 28 28 28 29 29 31 32 33 34 34 34 33 32 30 28 28 28 28 29 28 26 23 18 13 11 10 11 13 16 18 20 22 24 26 29 32 35 39 44 49 54 58 63 67 70 74 81 88 93 96 99 102 105 109 112 113 111 109 109 110 108 105 104 105 106 104 101 99
75 71 65 59 54 50 46 42 39 37 35 33 32 31 31 30 30 29 29 29 28 28 29 30 32 34 35 35 35 34 33 32 30 27 26 27 27 28 28 26 22 17 12 9 8 8 11 14 17 19 21 23 25 27 30 33 38 42 47 52 57 61 65 69 73 79 85 90 93 96 99 102 106 109 111 110 110 111 112 108 105 105 106 106 105 103 101
75 71 65 59 53 49 46 43 39 36 34 32 31 31 30 30 30 30 30 29 29 29 30 31 33 34 35 35 34 34 33 32 30 27 25 24 25 27 27 26 22 17 12 7 5 6 9 12 15 18 20 22 24 26 29 32 36 41 45 50 55 60 64 68 72 78 83 87 90 94 97 100 104 106 108 110 111 113 111 107 107 108 108 107 107 105 103
73 70 64 58 52 48 46 43 40 37 34 32 31 31 30 30 30 30 30 30 30 30 31 31 32 32 33 32 32 31 30 29 28 26 24 22 23 26 27 25 22 18 12 7 4 4 6 10 14 16 19 21 24 26 29 32 36 40 44 49 54 59 63 68 72 77 81 85 88 93 96 99 102 104 106 109 110 111 110 108 108 110 109 109 109 107 105
72 68 63 58 52 48 45 42 39 37 35 33 32 32 31 31 31 31 31 31 31 31 31 31 31 31 31 30 29 29 28 28 27 25 23 21 22 24 26 26 23 18 13 9 5 2 4 8 12 16 18 21 23 26 29 32 36 40 43 48 53 58 62 67 71 75 79 82 86 90 93 97 101 103 104 106 107 108 109 110 110 110 109 110 110 108 106
70 66 62 58 53 48 44 41 38 36 35 34 33 33 33 33 32 33 33 33 33 32 32 32 32 31 31 30 29 28 27 26 25 24 22 21 21 23 26 27 24 20 15 10 6 2 2 6 10 15 17 20 24 27 30 33 37 40 44 48 52 56 61 65 70 74 77 80 83 87 91 95 98 100 101 102 103 104 107 109 111 111 110 110 111 110 108
68 63 59 56 51 47 44 41 39 38 36 35 35 34 34 34 34 34 34 34 34 34 34 33 33 32 31 30 29 27 25 24 25 25 24 22 21 22 24 26 25 22 17 11 7 2 2 5 9 13 17 20 23 27 30 34 37 41 45 49 53 57 60 64 68 72 75 79 82 85 89 93 95 97 98 99 99 101 104 108 110 111 111 111 111 110 109
65 61 58 54 50 48 45 43 42 41 39 38 37 37 36 36 36 36 36 35 35 35 34 34 33 32 31 30 29 27 26 25 25 25 25 24 22 21 22 23 24 23 18 13 8 3 2 5 8 12 16 19 22 26 30 34 38 41 45 50 54 58 61 64 67 71 74 77 80 83 87 92 94 95 96 96 96 98 102 106 109 110 111 111 111 111 110
64 60 56 53 50 48 47 46 45 45 43 42 41 40 40 39 38 37 36 36 35 35 34 34 33 32 31 30 30 30 28 26 25 24 24 24 23 22 21 21 22 21 19 15 10 5 0 4 7 10 15 19 21 25 30 34 38 42 45 49 53 57 60 63 65 69 72 76 78 81 86 90 92 93 94 94 95 97 101 105 108 110 110 111 111 111 110
62 58 54 51 47 46 46 46 45 45 45 44 44 44 43 42 41 40 38 38 37 37 36 35 34 33 32 31 31 30 28 26 25 23 23 22 23 22 21 20 19 19 18 15 11 7 3 2 5 9 13 17 21 24 28 34 38 42 45 49 53 55 58 61 63 67 71 74 76 79 84 88 90 92 93 93 94 96 100 105 108 109 110 111 111 111 110
61 57 52 48 45 43 43 44 44 44 44 45 45 45 46 46 45 44 42 40 40 39 38 37 36 35 34 32 31 29 28 27 26 24 23 22 22 21 21 20 19 18 17 16 13 9 5 1 5 8 11 15 19 23 26 32 37 41 45 48 52 54 57 60 62 66 70 73 75 78 82 86 89 91 92 92 93 95 99 104 108 109 110 110 110 110 110
61 56 51 47 45 44 45 45 46 47 47 48 49 48 49 49 49 48 46 44 43 41 40 38 37 36 35 34 32 29 28 27 26 26 25 24 23 22 20 19 19 19 18 17 15 11 7 2 4 8 12 15 18 22 25 29 35 40 44 48 51 54 57 59 62 65 68 71 73 76 81 86 89 91 92 92 93 95 99 102 106 109 110 110 110 110 110
60 56 52 49 48 48 48 49 50 50 51 51 52 51 51 51 52 51 50 49 47 45 43 41 39 37 36 36 34 33 30 28 27 27 26 25 24 23 21 20 19 18 19 19 17 13 9 4 2 7 12 16 19 21 24 28 33 38 43 47 50 54 57 59 61 64 66 69 71 75 79 84 89 91 92 92 94 96 98 101 105 108 109 110 110 110 109
60 56 53 51 50 49 49 49 50 50 51 51 51 51 51 51 51 51 51 51 50 48 47 45 42 40 38 37 36 36 34 32 30 29 27 26 25 24 23 22 19 18 17 18 18 15 11 7 0 6 12 17 20 22 25 27 31 36 41 46 49 53 56 58 60 62 64 66 69 73 78 83 88 90 92 93 94 96 98 101 104 107 109 110 109 109 108
60 56 53 50 49 48 48 48 48 49 49 50 50 50 50 50 50 50 50 50 50 49 48 47 45 42 40 38 37 36 35 34 33 31 29 27 26 25 25 24 22 20 18 17 16 15 13 9 3 5 11 17 21 24 26 27 30 33 39 44 48 51 54 57 59 60 62 65 68 72 77 82 87 90 91 92 94 97 99 102 105 108 110 110 110 109 108
58 55 52 49 48 47 47 48 48 48 49 49 49 50 50 50 50 50 50 49 49 48 48 48 46 45 43 40 37 35 34 33 33 32 30 29 27 26 26 25 24 23 20 17 16 14 13 11 6 3 10 16 21 25 27 28 30 33 37 42 47 50 52 55 57 59 61 64 67 71 75 81 86 88 90 92 95 97 101 104 107 109 110 110 110 109 108
57 54 51 48 47 47 47 48 48 48 49 49 50 50 50 50 50 50 50 49 49 48 47 46 46 45 44 41 39 37 35 33 31 30 30 29 27 26 25 25 25 24 22 20 17 15 13 12 8 1 8 14 20 25 28 30 32 34 37 40 45 48 51 53 55 57 60 64 67 70 74 79 84 88 90 93 96 98 100 103 106 108 109 109 109 109 107
55 52 50 48 46 46 46 46 47 47 48 49 49 49 50 50 49 49 49 49 48 48 47 45 45 44 43 42 41 39 37 34 31 28 27 27 27 26 25 24 24 24 23 21 19 16 13 12 9 3 6 13 19 24 28 31 33 36 37 40 43 46 49 52 54 56 59 62 65 68 72 78 83 87 90 93 97 99 101 103 105 107 109 109 108 108 107
53 50 48 46 45 45 45 45 46 46 47 48 48 49 49 49 49 48 47 46 46 46 46 45 44 44 43 42 41 39 37 35 32 29 27 26 25 25 24 23 23 22 21 21 20 18 14 11 8 4 3 11 18 23 27 31 34 36 38 40 42 45 47 50 52 54 57 61 63 67 71 77 82 87 90 92 95 97 100 103 104 106 109 110 110 109 108
51 48 46 44 44 44 44 45 45 45 46 47 48 49 49 49 49 48 46 45 44 44 44 45 44 43 42 41 40 39 38 36 34 32 29 27 25 23 22 21 21 21 20 19 19 18 16 12 8 5 0 7 15 22 27 31 34 36 38 40 42 43 46 48 51 53 56 59 61 65 69 75 81 86 89 91 92 94 97 100 101 103 106 108 108 108 107
49 46 45 44 44 45 45 45 45 46 47 48 49 50 50 50 49 48 47 46 45 44 44 44 44 43 42 41 40 40 39 37 35 33 30 28 26 24 22 20 20 19 19 17 16 16 16 14 10 6 2 5 13 20 25 29 33 36 38 40 42 43 45 47 49 51 54 57 59 63 67 73 79 85 88 90 92 93 95 97 98 100 102 104 105 106 106
47 45 44 44 44 45 45 45 45 46 47 49 50 51 51 51 50 49 47 46 46 45 44 44 44 43 42 41 41 40 39 38 37 36 33 30 28 25 22 19 18 18 18 17 16 14 14 14 12 8 5 4 10 18 24 28 32 36 38 40 42 44 45 47 49 51 53 55 58 62 66 72 79 85 88 90 92 93 95 96 97 98 101 103 104 105 105
45 44 43 44 44 44 45 45 45 46 47 49 51 52 52 52 51 49 48 47 46 46 45 44 43 42 42 41 41 40 38 37 38 39 36 33 31 28 25 21 19 18 18 17 16 15 13 13 12 10 7 5 9 16 23 27 31 34 38 40 42 44 45 47 49 50 52 54 57 61 66 72 79 85 89 91 92 93 94 95 96 98 100 102 104 104 104
44 42 42 43 43 44 44 45 45 46 48 49 51 52 52 52 52 50 49 48 47 46 46 45 43 43 42 41 41 40 38 37 37 38 38 36 33 30 28 25 22 20 18 17 16 16 14 13 12 12 10 8 9 13 20 26 30 33 37 40 42 44 46 47 49 50 51 54 57 61 66 73 80 86 90 92 93 94 94 95 96 98 100 101 103 104 103
42 41 41 41 42 43 44 45 46 47 49 50 52 53 53 52 51 50 49 48 48 47 46 45 44 44 42 41 40 40 38 37 38 39 39 38 36 33 30 29 26 23 20 17 16 16 16 14 13 13 12 10 10 12 18 24 29 33 36 39 41 44 46 48 49 50 51 54 57 61 67 74 82 87 91 93 93 94 94 95 96 98 100 101 101 102 103
40 39 39 40 41 42 43 44 45 47 49 51 52 53 54 53 51 50 50 50 50 49 48 47 46 44 42 41 41 39 36 36 38 39 39 39 37 34 33 32 30 27 23 19 16 15 16 16 15 14 14 13 13 13 16 21 27 32 35 38 40 43 46 48 50 51 52 54 58 63 68 76 83 89 92 94 95 95 95 96 97 98 100 100 100 101 102
38 38 38 40 41 42 43 44 44 46 48 50 52 54 54 54 52 52 52 52 53 52 50 48 47 45 43 42 41 38 35 35 37 37 37 37 36 34 32 32 31 28 25 21 17 15 15 16 17 16 15 15 15 15 16 19 25 30 34 37 39 42 45 48 50 52 53 55 59 64 70 77 84 90 93 95 96 97 97 97 98 99 100 100 100 99 100
36 37 38 39 40 41 42 43 44 45 46 49 51 53 54 54 54 55 55 55 54 54 52 50 48 46 45 44 41 37 36 37 38 37 36 36 35 33 31 31 31 30 28 24 20 16 14 15 17 18 18 17 17 17 18 19 22 28 33 36 39 40 43 46 49 52 54 56 60 65 71 78 85 92 95 96 97 98 98 98 99 100 100 100 99 98 98
35 36 37 38 39 40 41 42 44 44 45 47 49 51 52 53 56 58 59 58 56 55 54 52 50 48 47 45 42 39 38 39 39 39 38 36 34 32 30 28 29 29 28 25 21 17 13 13 16 18 19 18 18 18 19 20 22 25 30 35 38 40 41 43 46 50 54 58 61 66 72 79 86 92 96 97 98 99 100 100 100 101 101 101 100 99 98
35 36 37 38 39 40 41 42 43 44 45 46 48 50 51 53 55 59 61 61 60 58 56 54 52 51 48 46 44 42 42 41 41 40 38 36 32 30 27 26 26 26 26 25 22 17 12 11 13 16 19 19 19 19 20 21 22 24 28 32 37 40 41 42 44 47 51 57 62 67 72 79 86 93 97 99 100 100 101 101 102 102 102 102 101 101 99
35 36 38 39 40 40 41 42 42 44 45 47 49 51 53 55 56 58 60 61 60 59 58 56 54 52 50 48 46 45 44 43 42 41 38 35 32 29 27 25 25 25 24 24 22 18 13 10 11 14 17 19 20 20 20 22 23 24 26 30 34 38 41 42 43 45 48 54 61 67 72 78 85 92 97 99 101 102 102 103 103 103 103 103 102 101 100
35 37 38 39 40 41 42 43 43 45 46 49 51 53 55 56 57 58 60 60 60 59 58 57 55 53 51 50 48 47 46 45 44 42 40 37 35 32 29 27 25 23 23 24 23 20 16 13 11 12 15 18 20 21 21 22 24 25 26 29 32 36 39 42 43 44 46 50 57 65 72 77 84 91 97 100 101 102 103 103 104 104 104 103 102 101 101
36 37 39 40 41 42 43 44 45 46 47 49 51 53 55 56 57 58 59 60 60 60 60 59 57 55 53 52 50 49 48 46 45 44 42 39 36 33 30 27 24 21 21 22 23 22 19 17 14 13 14 17 20 22 22 23 25 26 27 29 31 34 38 41 43 44 46 48 54 62 69 76 82 89 96 99 102 103 104 104 105 105 105 104 103 102 102
36 38 39 40 41 43 45 45 46 48 48 48 49 51 53 54 55 56 57 58 60 61 61 60 59 57 55 53 51 50 48 46 45 44 42 38 35 32 29 26 23 20 20 20 20 20 19 18 16 14 14 15 18 21 23 24 25 27 29 30 31 33 36 39 42 44 46 47 51 58 66 74 80 86 93 99 101 103 104 105 105 106 107 106 105 103 103
37 39 40 41 42 44 46 47 48 48 48 48 50 52 53 54 55 56 57 58 59 60 60 60 59 57 55 53 51 50 48 46 44 43 41 38 35 32 29 26 23 21 20 19 19 19 19 18 16 14 14 14 16 19 22 24 25 27 29 30 32 33 36 38 41 43 45 47 49 54 62 71 78 83 90 96 100 103 105 106 106 107 107 107 106 106 106
37 40 41 43 44 45 46 48 49 48 48 48 51 54 55 56 57 58 58 59 59 59 59 59 58 57 55 53 51 49 47 44 43 41 40 38 35 32 29 26 23 20 19 19 18 17 18 19 17 14 13 13 14 17 20 23 25 26 28 30 32 34 35 37 40 42 45 47 49 51 57 66 74 81 87 92 98 102 105 106 107 108 109 108 108 109 109
Wind_Direction
338 335 332 329 326 324 321 318 316 313 311 309 306 303 302 300 298 296 293 289 287 284 282 281 279 278 276 275 273 272 272 271 271 271 270 270 269 268 267 266 264 262 260 257 254 251 249 247 244 241 238 235 232 231 231 229 226 225 225 224 222 221 221 220 221 222 220 220 219 219 220 221 220 219 218 218 217 215 214 212 212 212 211 210 207 204 207
339 336 334 331 329 327 324 322 319 317 315 313 311 308 305 303 300 298 295 291 288 285 282 281 280 278 277 276 275 274 273 273 272 272 272 271 270 269 268 267 266 264 262 260 256 253 250 248 246 243 238 235 231 230 230 229 227 225 224 223 221 220 219 219 219 220 220 219 218 217 218 220 220 218 218 217 216 215 213 212 212 212 211 211 207 203 206
341 338 336 334 332 330 328 325 323 320 319 317 315 312 309 305 303 300 297 293 289 286 284 282 280 279 277 276 276 275 275 274 273 273 273 273 272 271 269 268 268 266 264 262 259 255 251 248 247 244 240 235 231 229 229 229 227 224 223 223 221 219 218 217 217 219 219 219 218 216 216 218 218 217 216 215 215 213 212 212 212 211 211 211 208 204 206
342 340 338 336 334 333 331 329 326 324 322 320 318 315 311 308 305 303 300 296 292 289 286 284 281 279 278 277 276 276 276 276 275 275 274 274 273 272 271 271 270 267 265 263 261 258 254 250 248 246 242 237 232 229 228 228 227 225 222 222 221 219 217 216 216 217 218 218 217 215 215 217 218 217 216 214 214 212 211 211 210 210 209 209 208 204 205
343 341 339 338 336 335 333 332 330 327 325 323 320 317 314 310 307 305 303 300 296 293 290 287 284 282 280 279 278 278 278 278 278 277 276 276 276 275 275 274 272 270 268 266 264 260 257 252 249 246 243 238 233 229 227 227 227 225 222 221 220 219 217 215 214 215 217 218 217 215 214 216 217 218 216 215 214 212 210 210 209 210 209 208 207 204 205
344 342 340 339 338 337 335 334 332 330 328 325 323 320 316 312 309 307 304 301 299 297 294 291 288 286 284 282 281 280 279 279 279 279 278 278 278 278 278 276 275 274 272 270 268 265 260 254 249 246 243 239 234 230 227 226 226 225 223 220 220 219 217 214 213 214 215 217 217 215 214 214 216 216 215 214 214 212 210 209 209 209 209 208 208 204 204
344 342 341 340 340 339 337 336 335 333 330 327 325 322 318 314 311 308 305 302 300 297 295 292 290 288 286 286 285 284 284 284 284 283 281 280 281 281 280 278 277 277 275 273 270 267 263 256 249 244 242 240 236 231 228 225 224 224 223 220 219 219 217 214 212 213 214 216 216 215 214 214 214 215 214 213 212 211 210 209 209 209 208 208 209 205 205
345 343 342 342 341 341 339 338 337 335 332 330 327 324 321 317 313 309 306 303 300 297 294 292 289 288 287 287 288 288 288 289 290 289 287 286 286 285 284 283 283 282 279 276 272 267 262 256 250 244 240 238 236 232 228 225 224 223 222 220 218 218 218 215 212 212 213 215 216 215 214 213 213 213 213 213 212 210 209 208 208 208 207 208 209 205 205
345 345 344 343 343 342 340 339 338 336 334 332 330 327 324 320 316 311 307 304 300 296 293 291 289 289 289 289 290 291 293 295 297 297 296 295 294 291 289 290 291 289 286 282 276 268 259 253 248 244 239 236 235 233 229 225 223 222 221 219 216 216 217 215 212 211 212 214 215 215 214 213 212 212 212 212 211 209 208 207 207 207 207 208 209 206 205
346 346 345 345 344 343 341 340 339 338 336 334 332 330 326 322 318 313 309 305 301 297 294 291 290 289 289 290 292 295 298 301 304 305 304 303 300 295 295 297 297 295 292 287 278 268 258 250 245 242 239 235 232 231 228 224 223 221 219 217 215 214 215 215 212 210 211 213 214 214 213 212 212 212 212 212 211 209 208 206 206 206 206 207 209 206 205
347 347 346 346 345 344 342 341 341 339 338 336 334 331 328 325 321 316 312 307 303 299 296 293 291 290 291 293 296 299 302 304 308 310 310 309 304 300 301 303 301 298 295 288 279 268 257 249 243 240 238 233 230 229 226 223 221 220 218 216 214 213 214 213 212 210 211 213 213 213 213 212 211 211 211 211 210 209 207 206 206 206 206 207 208 206 205
348 348 347 347 346 344 343 342 342 341 340 338 336 334 331 328 324 320 315 311 306 302 299 297 296 296 297 300 303 305 307 310 313 315 316 314 309 306 307 307 304 301 296 289 279 269 258 249 243 239 236 231 227 226 224 221 218 216 215 214 213 212 212 212 211 210 211 212 213 212 212 211 210 211 211 210 210 209 206 206 206 205 205 206 206 205 206
349 349 348 347 346 345 344 344 344 343 342 340 338 336 333 331 327 324 319 314 309 306 304 302 302 302 304 306 308 310 312 315 318 321 322 320 313 311 312 313 309 304 298 290 280 270 260 250 243 239 235 231 225 222 221 219 216 213 211 211 211 211 211 211 210 209 210 212 212 212 211 210 210 211 210 210 209 208 207 206 206 205 204 205 205 204 206
350 350 349 347 347 346 346 345 345 345 344 342 340 338 337 334 331 327 323 318 313 310 308 307 307 307 309 310 312 314 317 321 324 328 330 326 320 318 320 321 316 309 301 292 281 270 259 249 242 237 233 230 225 221 219 217 213 211 208 208 208 209 209 210 209 209 210 211 212 211 210 209 209 210 211 210 208 208 207 207 206 205 204 204 204 204 206
351 351 349 347 347 348 347 346 346 346 346 344 342 341 340 337 333 330 326 322 317 313 311 310 310 311 311 312 314 318 322 326 331 336 337 334 328 324 326 328 325 317 307 295 281 269 257 247 240 235 231 228 224 221 219 215 211 208 206 206 207 207 207 208 208 208 210 211 211 210 209 208 209 210 211 209 207 207 207 206 205 204 203 203 204 205 207
351 351 350 348 348 349 349 348 348 348 347 346 344 343 342 340 336 332 328 323 319 315 314 313 313 313 313 314 318 322 325 330 336 340 343 340 333 328 331 335 331 323 312 296 279 264 253 242 234 231 228 225 221 219 217 214 210 207 205 205 206 206 205 206 206 207 210 210 209 209 209 208 208 210 211 209 206 206 207 206 205 204 202 202 203 205 207
351 351 350 349 349 349 350 350 350 349 349 348 347 345 344 343 340 336 333 328 322 317 315 314 313 314 315 318 322 325 328 333 339 343 345 343 336 332 336 340 336 329 318 298 276 258 246 236 228 224 222 220 218 216 214 211 208 206 204 203 204 204 204 204 204 206 209 209 208 208 208 207 208 209 210 209 206 206 207 206 205 204 202 201 203 205 207
351 351 351 351 350 350 351 352 352 352 351 350 349 348 348 347 345 342 339 335 329 323 320 317 316 318 321 324 326 328 331 336 340 345 349 346 339 336 340 343 341 337 328 306 278 255 239 231 222 217 215 213 211 211 210 207 206 205 203 201 202 203 202 202 203 206 208 208 206 206 206 206 207 209 209 209 206 206 206 205 203 203 202 201 203 205 207
352 351 351 351 351 351 353 353 354 354 354 353 352 352 352 350 348 346 345 341 337 333 329 327 326 326 327 329 330 331 334 336 339 345 351 350 344 341 343 346 348 345 337 320 288 255 235 226 218 212 208 207 205 205 205 203 202 202 201 199 200 202 202 201 202 205 207 207 205 204 204 204 206 207 208 208 206 205 205 204 202 202 201 201 202 205 207
352 351 351 351 352 354 355 354 354 354 355 356 356 356 355 353 351 349 348 346 344 341 339 337 336 336 335 336 336 336 336 338 340 345 352 356 352 347 345 349 354 352 346 338 312 258 229 219 212 206 202 201 200 200 199 198 198 199 197 197 198 200 202 201 201 204 207 206 204 203 202 203 204 206 207 207 206 205 203 202 202 202 201 200 202 204 207
352 351 351 352 355 357 357 356 355 355 356 357 358 358 357 356 354 352 351 349 348 347 345 345 346 346 346 345 344 342 342 342 342 345 354 2 359 352 349 352 356 357 355 351 337 279 221 210 205 199 197 196 195 195 195 194 195 195 195 196 198 199 201 202 202 203 205 205 204 202 201 201 203 204 205 206 205 204 203 201 201 201 201 200 201 204 206
352 352 353 354 357 358 358 358 358 358 359 359 360 360 359 359 357 356 354 353 352 351 351 351 351 352 353 352 351 350 347 345 345 348 357 6 7 1 356 355 357 0 2 359 351 337 194 199 200 195 192 193 192 192 192 192 192 192 192 194 197 199 201 202 203 203 204 204 203 202 201 201 202 203 204 205 204 202 202 201 200 200 200 200 201 203 206
353 353 355 357 359 1 1 1 2 3 3 3 3 2 2 1 1 360 358 357 356 355 355 355 355 356 356 356 356 355 353 352 352 353 357 5 12 11 4 358 357 360 2 3 3 7 163 179 192 191 188 189 191 190 190 190 190 191 190 191 194 197 200 203 203 203 203 203 202 201 200 200 201 202 203 203 202 201 200 200 200 199 199 200 201 203 206
353 354 355 358 1 3 5 7 8 8 8 7 7 6 5 5 4 2 1 359 358 358 357 357 358 358 359 360 -0 360 359 358 356 355 356 1 9 15 12 4 -0 0 2 4 7 2 171 170 182 188 186 186 189 190 190 189 190 190 190 191 193 196 198 201 203 203 203 203 202 200 199 199 200 201 201 201 201 199 198 199 199 199 199 200 201 203 206
353 354 355 358 2 5 9 12 13 14 14 13 13 11 10 8 6 4 2 0 359 359 359 359 359 0 2 4 5 4 3 -0 357 357 357 358 2 10 14 10 4 4 4 5 8 5 339 170 176 184 185 184 185 189 191 190 189 190 190 191 194 196 197 200 201 202 203 204 201 199 198 198 199 200 200 200 199 198 197 197 198 199 199 200 201 203 205
352 353 354 358 2 6 11 14 15 16 17 18 18 17 15 13 11 7 5 2 1 0 360 359 0 2 3 5 7 7 6 3 360 358 357 358 1 5 10 11 9 9 10 10 11 12 14 162 171 178 185 185 184 187 191 192 190 190 190 191 194 196 197 199 201 202 203 204 201 198 197 197 198 199 199 198 197 197 196 196 197 198 200 201 202 203 205
352 352 353 356 1 6 10 13 14 16 17 18 19 19 18 17 15 12 9 7 4 2 1 0 0 2 3 5 7 8 8 7 4 359 357 359 2 4 7 11 12 12 15 18 17 15 16 75 169 173 181 186 184 184 190 194 193 191 190 191 193 195 196 198 200 202 203 204 201 198 197 196 197 198 197 197 196 195 195 195 196 197 199 201 202 203 205
351 350 352 355 0 5 9 11 12 13 14 15 16 16 16 15 14 13 12 11 8 6 4 2 2 2 2 3 5 7 9 10 8 4 359 357 359 2 7 13 15 14 17 22 22 21 22 26 180 174 173 180 184 184 188 193 195 194 192 192 193 194 196 198 200 201 203 203 201 199 197 195 196 196 196 195 195 194 194 194 196 197 199 201 203 204 205
350 350 353 357 1 5 7 9 10 11 12 12 13 12 12 11 11 10 10 10 9 7 6 4 3 3 3 3 3 4 6 9 10 8 4 359 357 359 3 11 16 17 18 20 21 22 25 25 193 181 174 176 181 184 187 192 196 196 195 194 194 195 196 198 199 201 203 203 201 199 197 195 195 195 195 194 194 193 193 193 195 197 199 201 203 204 205
349 352 355 358 1 4 6 8 9 9 10 11 11 10 10 9 8 8 7 6 6 6 5 4 4 4 4 4 4 3 3 4 6 6 6 2 359 358 360 4 10 17 21 21 20 21 24 27 50 191 183 178 179 182 186 189 194 198 197 197 197 197 197 198 200 201 202 202 201 199 197 195 195 195 194 193 193 193 192 193 195 197 199 200 202 204 205
350 353 355 358 360 1 3 5 6 7 8 9 9 9 8 7 7 7 6 5 4 3 2 2 2 3 4 4 4 3 2 2 2 1 2 3 2 360 359 359 3 9 17 21 21 23 25 29 37 194 191 184 180 181 183 186 191 197 199 200 200 200 200 200 200 201 201 201 201 199 197 195 195 195 194 193 193 193 192 192 194 197 199 200 202 203 204
350 352 354 356 358 359 1 2 3 4 6 7 7 7 6 6 6 5 5 4 4 2 0 359 359 -0 2 3 3 3 3 2 0 358 358 360 1 1 359 358 358 1 6 11 17 22 26 29 36 180 196 191 185 182 182 184 187 193 199 202 203 203 202 202 202 201 201 201 201 199 197 195 195 194 194 193 193 193 193 193 194 196 198 200 201 202 204
349 351 353 355 357 358 360 1 2 2 3 5 5 5 4 4 4 3 3 2 2 1 360 358 357 357 359 360 1 2 3 2 -0 358 356 356 358 360 359 357 356 356 356 359 6 15 21 24 30 104 195 195 191 186 184 184 186 190 196 202 205 205 205 204 203 202 201 201 201 199 197 195 195 194 194 193 193 193 194 195 195 196 197 199 201 202 203
348 350 353 355 357 359 360 1 1 1 2 3 3 3 3 3 3 2 1 0 359 359 359 358 356 356 357 357 358 360 360 360 359 358 356 355 355 357 357 356 355 353 351 350 353 0 10 16 21 39 189 196 195 191 188 187 187 190 194 200 204 206 206 206 205 203 203 202 201 199 196 195 194 194 194 194 194 194 194 195 196 196 197 198 200 202 203
348 350 353 355 358 359 -0 0 0 0 1 1 1 1 2 2 1 1 0 359 358 357 357 357 357 357 356 356 356 356 356 357 357 357 355 355 356 356 355 354 351 349 347 344 343 346 352 2 10 17 185 196 198 197 193 190 190 191 193 198 203 206 207 207 206 204 204 203 202 199 197 195 194 193 193 195 196 195 195 195 196 197 197 198 199 201 202
347 350 353 356 358 359 360 0 -0 360 360 360 360 360 0 1 360 359 359 358 357 356 357 357 357 357 356 354 354 353 353 354 355 355 354 354 355 355 354 352 348 345 343 341 338 336 338 342 351 359 244 196 199 201 199 195 193 192 194 198 202 205 207 208 207 205 204 203 202 200 197 195 194 193 193 194 196 197 197 197 197 198 198 199 200 201 202
347 350 353 355 357 358 358 359 359 359 358 358 358 358 359 359 359 358 357 357 357 358 358 358 357 356 355 353 352 352 351 351 352 352 353 353 353 352 351 350 346 341 337 335 334 330 327 328 332 335 308 209 200 201 203 201 198 196 196 198 201 203 206 207 207 205 204 203 202 200 197 195 193 193 193 193 195 197 198 198 198 198 199 200 201 202 203
347 349 352 354 356 356 357 357 358 358 357 356 356 357 357 357 357 357 356 356 357 358 359 359 358 356 354 353 351 350 349 349 349 349 350 351 350 349 347 346 344 339 333 329 327 322 317 316 316 314 299 237 205 201 203 205 203 200 198 198 201 203 204 205 206 205 203 202 201 199 197 195 193 193 193 193 194 197 199 199 198 198 199 200 201 202 203
346 349 351 353 354 355 355 355 355 355 355 354 355 355 356 356 356 356 355 355 357 358 359 359 358 356 354 352 350 349 348 347 346 345 345 346 345 344 343 343 342 339 332 324 318 312 306 303 300 294 282 253 217 206 204 205 206 205 203 201 201 203 204 204 205 204 202 200 200 199 196 194 193 192 193 193 194 196 198 199 198 198 199 200 201 202 203
345 348 350 352 352 353 354 354 353 354 354 353 354 354 354 354 355 355 355 355 357 359 359 359 358 356 354 352 350 348 346 345 343 341 340 340 340 341 340 339 338 336 330 321 313 306 299 291 285 279 270 251 228 213 208 207 207 208 207 206 204 204 205 205 204 203 201 199 198 197 196 194 193 193 193 194 194 196 198 199 199 199 200 201 202 203 203
345 347 349 351 351 351 352 352 352 352 352 352 353 353 353 354 354 355 356 357 357 358 359 359 358 356 353 351 350 348 346 343 340 338 337 337 337 337 336 334 333 331 327 321 313 304 296 287 277 270 264 252 235 220 213 210 209 209 210 211 209 207 206 205 204 203 200 198 197 196 195 193 193 193 193 194 194 195 197 198 199 199 200 201 202 204 204
345 347 349 350 350 350 350 351 352 352 351 351 351 352 352 353 354 356 358 358 358 358 359 358 357 355 352 350 349 347 344 341 338 335 334 333 333 332 330 327 326 324 322 319 313 303 295 287 276 266 259 251 240 227 216 212 211 210 211 212 213 212 209 207 205 203 199 197 196 196 194 193 193 193 194 195 195 195 197 198 198 199 200 201 202 204 205
346 348 349 349 349 349 349 350 351 351 351 351 351 351 352 352 354 356 359 359 359 358 357 356 355 354 351 349 348 345 341 337 334 332 330 329 329 327 325 322 320 320 320 318 313 304 294 284 276 267 257 248 240 232 222 215 213 212 212 213 215 216 215 211 207 203 199 197 196 195 194 194 194 194 194 195 196 196 197 197 198 200 201 201 203 204 206
347 348 349 348 348 348 348 348 349 351 351 351 351 351 352 353 354 356 358 359 358 356 355 354 354 353 351 348 347 343 338 335 333 331 330 330 329 326 325 322 318 316 316 315 310 303 291 278 271 265 258 248 239 233 227 220 214 213 214 214 215 217 218 216 212 206 200 197 196 196 195 194 194 195 195 196 197 197 197 197 199 200 201 202 202 204 206
347 348 348 348 347 348 348 348 348 349 350 351 351 351 352 354 356 356 356 356 356 355 354 353 353 352 350 348 346 342 337 335 335 334 332 331 329 327 325 321 315 312 311 310 307 302 288 271 264 261 257 250 241 234 229 224 218 214 214 215 216 217 218 218 216 212 204 198 196 197 196 195 195 196 196 196 197 198 198 198 199 200 201 202 202 204 206
347 347 348 347 347 348 348 348 348 348 348 349 350 351 352 355 358 357 355 353 353 353 352 351 351 350 348 347 345 342 339 337 336 334 332 330 328 328 327 322 315 312 311 309 306 302 291 271 261 258 257 253 246 237 231 228 222 217 214 214 216 217 217 218 217 215 210 203 199 197 197 197 196 197 197 198 198 199 199 199 200 200 201 202 203 204 206
347 347 347 347 347 348 348 348 348 348 348 349 350 351 353 355 358 357 353 350 350 350 350 349 349 348 347 345 343 341 339 337 335 333 331 331 332 333 331 327 321 317 312 308 305 303 298 282 264 256 255 254 250 243 236 231 227 221 216 214 215 217 218 218 217 216 213 208 203 200 199 198 198 198 199 199 199 200 200 200 201 201 202 203 204 205 206
347 347 347 347 348 349 349 348 348 349 349 350 351 352 353 354 355 354 351 348 348 348 348 348 348 347 345 343 342 341 339 337 335 333 333 333 335 336 334 330 326 320 314 308 305 304 302 293 275 258 252 251 249 246 239 234 231 227 220 215 214 216 218 218 218 216 213 209 206 204 202 200 199 200 200 201 201 201 202 202 202 202 202 203 204 205 207
347 347 347 348 349 349 349 350 349 350 351 351 352 352 352 352 351 350 348 346 346 347 347 347 346 345 344 343 342 340 338 336 335 333 332 333 336 336 334 331 328 322 312 304 301 300 298 294 283 268 254 246 246 246 241 235 232 230 225 219 215 215 216 218 218 217 214 210 206 205 205 204 202 201 202 202 202 203 203 203 203 203 203 204 204 206 207
346 346 347 348 349 349 350 351 350 350 350 351 351 351 350 349 347 346 346 346 346 347 346 346 344 343 342 341 340 338 337 336 334 332 331 333 335 336 335 332 329 323 312 304 300 297 294 291 285 275 261 248 242 243 242 238 234 231 228 224 219 215 215 216 217 217 216 212 208 205 206 207 206 204 203 204 204 204 205 205 205 205 205 204 205 206 207
345 345 346 347 349 350 350 350 350 350 349 348 348 348 348 347 345 345 346 346 346 346 346 345 343 342 341 340 339 338 338 337 334 331 331 333 336 336 335 333 331 325 315 308 305 301 297 293 288 279 267 252 241 237 238 238 236 233 230 228 224 219 216 216 216 217 216 215 210 206 206 207 208 207 206 206 206 206 206 206 206 207 206 206 206 206 207
344 344 345 346 348 349 350 349 349 348 348 347 346 346 347 346 345 345 346 346 346 346 345 344 343 341 340 340 340 339 338 336 333 331 331 333 335 335 334 334 333 326 317 312 310 306 300 296 292 283 269 255 242 234 233 234 235 233 232 230 228 224 219 216 215 216 217 216 214 209 207 207 208 209 209 208 208 208 208 208 208 208 208 207 207 207 208
Height
10616 10609 10601 10594 10588 10582 10577 10571 10566 10562 10560 10558 10554 10549 10546 10543 10542 10543 10542 10539 10538 10536 10533 10531 10530 10529 10528 10527 10526 10525 10523 10522 10521 10519 10518 10517 10516 10515 10514 10513 10511 10512 10511 10511 10513 10514 10515 10516 10518 10522 10527 10533 10540 10544 10547 10554 10562 10568 10576 10586 10599 10611 10620 10632 10643 10654 10665 10673 10683 10694 10702 10710 10722 10738 10753 10761 10771 10782 10792 10803 10812 10820 10830 10838 10848 10857 10859
10609 10601 10594 10587 10580 10575 10570 10564 10559 10555 10551 10549 10546 10543 10539 10536 10535 10535 10534 10532 10530 10529 10527 10525 10524 10522 10521 10519 10518 10517 10516 10515 10513 10511 10510 10508 10507 10505 10504 10503 10501 10501 10500 10499 10501 10502 10503 10505 10505 10507 10512 10518 10526 10531 10533 10538 10546 10554 10562 10571 10585 10597 10605 10617 10628 10636 10647 10656 10667 10681 10690 10698 10711 10726 10737 10747 10758 10771 10784 10797 10806 10815 10824 10830 10840 10850 10850
10602 10594 10587 10580 10574 10568 10563 10558 10553 10549 10545 10542 10539 10536 10532 10528 10526 10526 10526 10525 10523 10522 10520 10519 10517 10516 10514 10513 10512 10510 10509 10507 10505 10504 10502 10500 10498 10497 10495 10494 10492 10490 10488 10487 10488 10489 10491 10493 10493 10493 10498 10504 10512 10518 10520 10524 10531 10540 10550 10558 10569 10581 10589 10601 10612 10621 10632 10643 10654 10668 10678 10686 10696 10705 10715 10729 10744 10760 10776 10788 10796 10807 10816 10822 10832 10841 10841
10594 10587 10580 10573 10567 10562 10557 10552 10548 10543 10539 10536 10532 10529 10526 10522 10519 10518 10518 10518 10517 10516 10514 10513 10511 10510 10508 10507 10505 10504 10502 10500 10498 10496 10494 10492 10490 10488 10487 10485 10482 10480 10478 10476 10476 10477 10479 10481 10482 10481 10485 10491 10499 10505 10507 10510 10517 10526 10536 10544 10555 10565 10574 10587 10599 10609 10620 10630 10641 10655 10664 10670 10677 10687 10702 10721 10736 10751 10765 10775 10786 10796 10803 10811 10822 10832 10834
10588 10580 10573 10567 10561 10556 10551 10546 10542 10538 10534 10530 10527 10524 10520 10517 10514 10512 10510 10510 10509 10509 10507 10506 10504 10503 10501 10500 10499 10497 10495 10493 10491 10489 10486 10484 10482 10480 10478 10476 10473 10469 10468 10466 10465 10466 10468 10470 10471 10471 10473 10479 10486 10492 10495 10498 10505 10513 10523 10531 10541 10551 10561 10574 10587 10597 10607 10616 10625 10638 10648 10656 10667 10682 10701 10717 10729 10742 10755 10767 10779 10786 10792 10802 10812 10821 10826
10582 10574 10567 10561 10555 10550 10544 10540 10536 10532 10528 10525 10522 10519 10516 10512 10509 10507 10505 10503 10502 10502 10501 10499 10497 10496 10494 10493 10492 10491 10489 10487 10485 10482 10479 10477 10475 10472 10470 10468 10464 10460 10458 10456 10455 10456 10457 10458 10460 10461 10463 10467 10473 10479 10482 10487 10494 10502 10510 10518 10528 10537 10548 10562 10574 10585 10593 10600 10610 10623 10635 10646 10659 10676 10693 10708 10720 10734 10748 10760 10770 10776 10786 10797 10801 10811 10817
10577 10569 10561 10555 10550 10544 10539 10534 10531 10527 10524 10520 10517 10515 10512 10508 10505 10503 10501 10499 10497 10496 10495 10493 10491 10490 10488 10486 10485 10484 10482 10480 10478 10476 10473 10471 10468 10464 10461 10458 10455 10452 10450 10448 10446 10446 10447 10447 10449 10451 10453 10456 10460 10466 10471 10477 10484 10489 10496 10506 10516 10525 10536 10549 10562 10572 10579 10587 10599 10611 10624 10638 10651 10666 10681 10693 10706 10722 10737 10750 10760 10769 10780 10787 10791 10804 10808
10573 10564 10557 10550 10544 10539 10534 10529 10525 10522 10519 10516 10513 10510 10507 10504 10502 10499 10497 10495 10493 10491 10489 10488 10486 10484 10482 10481 10479 10477 10476 10474 10472 10469 10467 10464 10461 10457 10452 10449 10446 10443 10441 10439 10437 10437 10437 10437 10439 10441 10443 10445 10449 10455 10460 10467 10472 10478 10485 10495 10506 10516 10526 10539 10552 10561 10568 10577 10587 10599 10615 10629 10641 10654 10667 10680 10695 10711 10724 10738 10750 10760 10772 10778 10783 10795 10800
10568 10560 10552 10545 10539 10534 10529 10525 10521 10517 10514 10511 10508 10506 10503 10501 10498 10495 10493 10491 10489 10487 10485 10483 10482 10480 10478 10475 10473 10471 10469 10468 10466 10463 10459 10457 10454 10449 10444 10440 10437 10434 10432 10430 10429 10428 10428 10428 10429 10431 10433 10436 10440 10445 10451 10457 10462 10468 10476 10486 10497 10506 10515 10527 10540 10550 10558 10565 10574 10589 10605 10617 10628 10641 10654 10670 10686 10700 10713 10728 10742 10753 10764 10770 10775 10786 10792
10564 10555 10548 10541 10536 10530 10525 10521 10517 10513 10509 10506 10504 10501 10499 10497 10494 10492 10490 10487 10485 10483 10481 10480 10478 10476 10473 10471 10468 10466 10464 10462 10459 10457 10453 10450 10447 10442 10437 10433 10429 10426 10424 10422 10420 10420 10420 10420 10421 10422 10424 10428 10432 10437 10442 10448 10454 10460 10468 10477 10487 10496 10504 10514 10527 10539 10546 10551 10562 10578 10591 10601 10616 10632 10646 10662 10678 10691 10705 10721 10733 10743 10752 10757 10763 10776 10785
10560 10552 10544 10538 10532 10526 10521 10517 10513 10509 10505 10502 10499 10497 10495 10493 10490 10488 10486 10484 10481 10479 10477 10476 10474 10472 10469 10466 10463 10461 10460 10458 10455 10452 10448 10444 10440 10436 10431 10427 10423 10419 10417 10415 10414 10413 10413 10413 10414 10415 10418 10422 10425 10429 10434 10439 10445 10452 10460 10470 10478 10485 10493 10503 10517 10529 10534 10538 10550 10565 10576 10591 10611 10626 10639 10654 10668 10682 10698 10712 10721 10730 10739 10746 10757 10773 10781
10557 10548 10541 10534 10529 10523 10518 10514 10510 10506 10502 10499 10495 10493 10491 10488 10486 10484 10482 10480 10478 10475 10473 10471 10469 10467 10464 10462 10458 10456 10454 10453 10450 10447 10443 10439 10434 10430 10426 10422 10417 10413 10411 10409 10408 10407 10407 10408 10408 10410 10412 10415 10419 10423 10427 10432 10438 10444 10453 10461 10468 10477 10485 10494 10507 10517 10521 10527 10538 10552 10568 10589 10607 10618 10630 10644 10658 10673 10689 10699 10707 10718 10730 10742 10755 10768 10772
10554 10545 10538 10531 10526 10520 10515 10511 10507 10503 10499 10496 10493 10490 10487 10485 10482 10480 10478 10476 10474 10472 10470 10467 10465 10462 10460 10457 10454 10451 10449 10448 10446 10443 10439 10435 10430 10425 10421 10416 10411 10408 10405 10404 10403 10402 10402 10403 10403 10405 10407 10410 10413 10417 10421 10426 10432 10438 10446 10453 10460 10469 10476 10484 10496 10505 10510 10516 10528 10545 10566 10585 10599 10610 10621 10632 10647 10665 10680 10687 10696 10710 10725 10737 10749 10758 10761
10552 10543 10536 10529 10523 10518 10513 10508 10504 10500 10497 10493 10490 10487 10484 10482 10479 10477 10474 10472 10470 10468 10466 10464 10461 10458 10455 10453 10450 10447 10444 10443 10441 10438 10435 10431 10426 10421 10417 10412 10407 10404 10401 10399 10398 10398 10398 10399 10399 10400 10403 10405 10409 10412 10415 10420 10426 10433 10439 10446 10452 10460 10467 10475 10486 10496 10502 10509 10523 10540 10559 10575 10589 10600 10608 10618 10636 10655 10667 10677 10691 10707 10720 10732 10742 10749 10753
10550 10542 10534 10527 10521 10516 10511 10506 10501 10498 10494 10491 10488 10485 10482 10479 10476 10474 10471 10469 10467 10464 10462 10460 10457 10455 10452 10448 10446 10443 10440 10438 10436 10433 10430 10426 10422 10417 10413 10408 10404 10400 10398 10396 10395 10395 10395 10395 10396 10397 10399 10401 10404 10408 10411 10416 10421 10427 10432 10438 10444 10451 10459 10469 10480 10489 10495 10503 10517 10533 10549 10565 10579 10586 10593 10609 10630 10645 10656 10670 10685 10699 10712 10724 10734 10741 10745
10548 10540 10533 10526 10520 10514 10509 10504 10500 10496 10492 10489 10486 10482 10480 10477 10474 10472 10469 10466 10464 10461 10459 10457 10454 10451 10448 10445 10442 10439 10436 10434 10432 10429 10426 10422 10418 10414 10409 10405 10401 10398 10395 10393 10392 10392 10392 10392 10393 10394 10396 10398 10401 10404 10408 10412 10417 10422 10427 10433 10439 10446 10455 10464 10475 10482 10487 10496 10511 10527 10542 10558 10569 10575 10584 10603 10622 10636 10648 10662 10676 10689 10703 10717 10726 10732 10738
10546 10539 10532 10525 10518 10513 10508 10503 10498 10494 10491 10487 10484 10481 10478 10476 10473 10470 10467 10464 10461 10458 10456 10453 10451 10448 10445 10442 10439 10437 10434 10431 10429 10426 10423 10419 10415 10411 10407 10403 10399 10396 10393 10391 10390 10390 10390 10390 10390 10391 10393 10396 10399 10401 10405 10409 10414 10419 10424 10430 10437 10444 10452 10460 10469 10475 10479 10490 10506 10520 10535 10549 10559 10567 10579 10597 10615 10628 10638 10652 10671 10686 10698 10711 10719 10725 10731
10544 10537 10531 10524 10518 10512 10507 10502 10497 10493 10489 10486 10483 10480 10477 10474 10471 10468 10465 10462 10459 10456 10453 10451 10448 10445 10442 10439 10436 10433 10431 10428 10425 10423 10421 10417 10413 10408 10405 10401 10397 10394 10391 10390 10388 10388 10388 10388 10388 10389 10391 10393 10396 10399 10402 10406 10411 10416 10421 10427 10433 10440 10447 10455 10463 10468 10472 10482 10498 10511 10526 10540 10550 10560 10574 10590 10606 10616 10624 10643 10666 10680 10691 10704 10712 10717 10722
10543 10536 10530 10524 10517 10511 10506 10501 10497 10493 10489 10485 10482 10479 10476 10473 10469 10466 10463 10460 10457 10454 10451 10449 10445 10442 10440 10437 10433 10430 10427 10424 10422 10421 10419 10416 10411 10407 10403 10399 10396 10392 10390 10388 10387 10386 10386 10386 10387 10388 10389 10391 10393 10396 10400 10404 10408 10413 10419 10424 10430 10436 10443 10450 10456 10460 10465 10476 10490 10502 10516 10530 10540 10552 10566 10579 10590 10601 10617 10641 10657 10665 10677 10693 10701 10706 10712
10543 10536 10530 10524 10517 10511 10505 10500 10496 10492 10489 10485 10481 10478 10475 10471 10468 10465 10462 10459 10455 10452 10449 10446 10443 10440 10437 10434 10431 10428 10425 10422 10420 10418 10417 10414 10410 10406 10402 10398 10395 10392 10389 10387 10386 10385 10385 10385 10386 10387 10388 10390 10392 10394 10397 10401 10406 10410 10416 10421 10426 10432 10439 10445 10450 10455 10460 10471 10483 10494 10507 10520 10531 10543 10556 10566 10579 10595 10615 10634 10645 10654 10667 10680 10688 10695 10701
10543 10536 10529 10523 10517 10511 10505 10501 10496 10492 10488 10484 10481 10478 10474 10470 10467 10464 10460 10457 10454 10451 10448 10445 10442 10438 10435 10432 10429 10426 10423 10420 10418 10416 10414 10413 10409 10405 10401 10397 10394 10391 10389 10387 10385 10384 10384 10384 10385 10385 10387 10388 10390 10393 10395 10399 10403 10408 10413 10418 10422 10428 10434 10440 10446 10450 10456 10466 10478 10489 10502 10513 10523 10534 10546 10558 10574 10593 10608 10621 10634 10647 10661 10671 10679 10686 10692
10544 10537 10529 10523 10517 10511 10506 10502 10497 10492 10488 10484 10480 10477 10473 10470 10466 10463 10459 10456 10453 10450 10446 10443 10440 10437 10434 10431 10427 10424 10421 10418 10416 10414 10412 10411 10408 10404 10400 10396 10393 10391 10388 10386 10385 10384 10383 10383 10384 10385 10386 10387 10389 10391 10394 10397 10401 10405 10410 10415 10420 10426 10431 10436 10442 10447 10453 10462 10474 10486 10498 10508 10517 10528 10540 10553 10569 10586 10601 10613 10625 10638 10652 10662 10671 10678 10683
10545 10539 10532 10524 10518 10512 10507 10502 10497 10493 10488 10484 10480 10477 10473 10469 10466 10462 10459 10455 10452 10448 10445 10442 10439 10436 10433 10430 10427 10423 10420 10417 10414 10411 10410 10408 10407 10405 10401 10397 10394 10391 10389 10386 10385 10383 10382 10382 10383 10384 10385 10387 10389 10390 10393 10395 10399 10403 10407 10412 10416 10422 10427 10433 10439 10444 10450 10458 10469 10481 10493 10503 10513 10524 10536 10550 10565 10581 10595 10608 10619 10630 10643 10654 10662 10669 10676
10547 10540 10534 10527 10520 10514 10509 10503 10498 10493 10489 10484 10480 10477 10473 10469 10465 10462 10458 10455 10451 10448 10445 10442 10439 10436 10433 10430 10426 10423 10420 10416 10413 10411 10408 10406 10405 10404 10402 10399 10395 10392 10389 10387 10385 10383 10382 10381 10382 10383 10384 10386 10388 10390 10392 10394 10397 10401 10405 10409 10413 10417 10423 10429 10436 10442 10448 10454 10465 10477 10487 10497 10508 10519 10531 10545 10560 10575 10588 10601 10614 10625 10636 10646 10654 10662 10669
10548 10541 10535 10529 10522 10516 10510 10505 10499 10495 10490 10485 10481 10477 10473 10469 10466 10462 10459 10455 10452 10449 10445 10442 10439 10436 10432 10429 10426 10422 10420 10417 10414 10411 10408 10406 10404 10403 10401 10399 10396 10393 10390 10388 10385 10384 10382 10382 10382 10383 10384 10385 10387 10389 10391 10393 10396 10399 10403 10408 10412 10416 10422 10427 10434 10440 10445 10452 10463 10474 10483 10493 10504 10515 10527 10540 10555 10569 10581 10594 10607 10620 10630 10639 10647 10655 10661
10549 10543 10536 10530 10524 10518 10512 10507 10502 10497 10492 10488 10483 10479 10475 10471 10467 10463 10460 10456 10452 10448 10445 10441 10438 10435 10431 10428 10425 10422 10420 10417 10415 10412 10409 10407 10405 10402 10401 10399 10397 10394 10391 10388 10386 10384 10383 10382 10383 10383 10385 10385 10387 10389 10391 10393 10395 10398 10402 10406 10410 10415 10421 10426 10432 10438 10443 10450 10460 10470 10479 10490 10500 10511 10523 10536 10550 10563 10576 10588 10600 10613 10624 10632 10640 10648 10655
10550 10544 10538 10532 10526 10520 10515 10509 10505 10500 10495 10490 10485 10480 10476 10472 10468 10465 10461 10457 10452 10448 10445 10441 10438 10434 10431 10428 10425 10422 10420 10417 10415 10412 10410 10408 10405 10403 10401 10398 10396 10394 10391 10388 10386 10384 10383 10383 10383 10383 10385 10386 10387 10389 10391 10393 10395 10398 10401 10405 10409 10414 10419 10424 10430 10435 10441 10448 10457 10467 10476 10487 10497 10507 10519 10532 10545 10558 10571 10583 10594 10606 10617 10627 10635 10642 10649
10550 10545 10539 10533 10527 10521 10515 10510 10505 10500 10495 10490 10486 10481 10477 10473 10469 10465 10462 10458 10454 10450 10445 10442 10438 10435 10431 10428 10425 10422 10419 10417 10414 10412 10410 10408 10405 10403 10401 10398 10396 10393 10391 10388 10386 10385 10383 10383 10383 10383 10384 10385 10387 10389 10391 10394 10396 10399 10402 10405 10408 10413 10417 10422 10427 10433 10438 10445 10455 10465 10474 10483 10492 10502 10515 10528 10540 10553 10565 10578 10590 10600 10610 10620 10629 10636 10644
10550 10544 10538 10532 10526 10521 10516 10511 10506 10501 10496 10491 10487 10482 10478 10474 10470 10466 10462 10458 10454 10451 10446 10443 10439 10435 10432 10428 10425 10422 10419 10416 10414 10411 10409 10407 10405 10403 10401 10398 10396 10394 10391 10388 10387 10385 10384 10383 10383 10383 10383 10384 10386 10388 10391 10393 10397 10400 10403 10405 10408 10412 10415 10420 10425 10430 10436 10444 10453 10462 10472 10481 10490 10499 10511 10523 10535 10547 10560 10573 10585 10595 10604 10613 10621 10630 10639
10549 10543 10538 10532 10527 10522 10517 10512 10508 10503 10498 10494 10489 10484 10480 10475 10471 10467 10463 10459 10455 10451 10447 10444 10440 10436 10432 10428 10425 10422 10419 10416 10413 10410 10408 10406 10405 10403 10401 10399 10396 10394 10392 10390 10388 10386 10385 10383 10383 10383 10384 10384 10385 10387 10390 10393 10396 10400 10403 10406 10409 10411 10415 10419 10424 10428 10435 10443 10452 10460 10469 10479 10488 10497 10508 10519 10531 10543 10555 10567 10578 10588 10597 10605 10615 10624 10633
10548 10543 10537 10532 10527 10523 10518 10514 10509 10505 10500 10495 10491 10486 10482 10477 10473 10469 10464 10460 10456 10452 10448 10444 10440 10437 10433 10429 10426 10423 10419 10416 10413 10410 10408 10406 10404 10402 10400 10399 10397 10395 10392 10391 10389 10387 10386 10384 10383 10383 10384 10384 10384 10386 10388 10392 10396 10400 10404 10407 10409 10412 10415 10419 10423 10428 10435 10442 10449 10458 10467 10476 10486 10496 10506 10517 10527 10538 10548 10558 10568 10578 10588 10597 10607 10616 10625
10548 10543 10538 10533 10528 10523 10519 10514 10510 10505 10501 10497 10492 10487 10483 10479 10474 10470 10465 10461 10457 10453 10449 10445 10441 10437 10433 10430 10427 10424 10421 10418 10414 10411 10408 10406 10404 10402 10400 10398 10396 10395 10393 10391 10390 10388 10387 10385 10384 10383 10384 10385 10385 10385 10387 10390 10394 10398 10402 10406 10408 10411 10415 10418 10422 10427 10434 10440 10446 10455 10465 10474 10483 10494 10504 10514 10523 10533 10541 10549 10557 10568 10579 10589 10598 10608 10617
10548 10543 10538 10533 10528 10523 10519 10514 10510 10506 10501 10497 10492 10488 10484 10479 10475 10470 10466 10462 10458 10454 10450 10446 10442 10438 10434 10431 10427 10424 10421 10418 10415 10412 10409 10406 10404 10402 10399 10398 10396 10395 10394 10392 10390 10389 10387 10386 10385 10384 10384 10385 10386 10386 10387 10390 10392 10395 10400 10403 10407 10410 10414 10417 10422 10427 10432 10437 10444 10453 10462 10471 10481 10491 10500 10509 10517 10526 10536 10545 10553 10562 10573 10583 10592 10601 10610
10548 10543 10538 10533 10529 10524 10520 10515 10511 10507 10502 10498 10493 10489 10485 10480 10476 10471 10467 10463 10458 10454 10451 10447 10443 10439 10435 10431 10427 10424 10421 10419 10416 10413 10410 10407 10404 10402 10400 10398 10396 10395 10394 10393 10391 10390 10388 10387 10386 10385 10385 10385 10386 10387 10388 10389 10391 10394 10397 10401 10404 10408 10412 10416 10420 10426 10431 10436 10443 10451 10459 10468 10477 10487 10496 10505 10512 10519 10528 10538 10547 10556 10565 10575 10585 10595 10603
10549 10544 10539 10534 10529 10525 10521 10516 10512 10508 10503 10499 10495 10491 10486 10481 10477 10472 10468 10464 10459 10455 10451 10447 10443 10439 10435 10431 10427 10424 10421 10419 10416 10413 10410 10407 10404 10402 10400 10398 10396 10394 10393 10393 10391 10390 10389 10388 10387 10385 10385 10385 10386 10387 10387 10388 10390 10392 10396 10399 10402 10406 10409 10413 10418 10424 10429 10435 10442 10450 10457 10465 10474 10483 10492 10503 10512 10518 10524 10532 10541 10549 10557 10565 10575 10585 10594
10548 10544 10539 10534 10530 10526 10521 10517 10513 10509 10504 10500 10496 10491 10487 10482 10477 10473 10468 10464 10460 10455 10450 10446 10442 10438 10435 10431 10428 10424 10421 10418 10415 10412 10409 10407 10404 10402 10400 10398 10396 10394 10393 10392 10391 10390 10389 10388 10387 10386 10385 10385 10385 10386 10387 10387 10389 10391 10394 10397 10400 10403 10407 10411 10416 10422 10427 10434 10441 10448 10456 10463 10472 10480 10490 10500 10510 10519 10525 10531 10539 10548 10556 10564 10572 10580 10589
10547 10543 10539 10534 10530 10526 10521 10517 10513 10509 10504 10500 10495 10491 10486 10482 10477 10472 10468 10464 10459 10455 10450 10445 10441 10437 10434 10430 10427 10423 10420 10417 10414 10411 10408 10406 10404 10402 10400 10399 10397 10395 10393 10391 10390 10389 10388 10387 10387 10386 10385 10384 10384 10386 10387 10388 10389 10390 10392 10395 10398 10401 10405 10409 10414 10419 10425 10432 10439 10446 10454 10462 10470 10478 10487 10497 10506 10515 10522 10529 10538 10547 10555 10563 10571 10578 10586
10547 10542 10538 10534 10529 10525 10521 10517 10512 10508 10503 10499 10494 10490 10485 10480 10476 10472 10468 10463 10458 10454 10449 10445 10440 10436 10432 10429 10425 10422 10419 10415 10412 10409 10407 10405 10403 10401 10400 10398 10396 10394 10392 10390 10388 10387 10387 10386 10386 10386 10385 10384 10383 10384 10386 10387 10388 10390 10391 10394 10396 10399 10402 10406 10411 10416 10423 10430 10437 10444 10451 10459 10467 10476 10484 10493 10501 10509 10517 10526 10535 10543 10550 10558 10566 10573 10581
10546 10542 10538 10533 10529 10525 10520 10516 10512 10508 10503 10498 10493 10489 10484 10479 10475 10471 10466 10461 10457 10452 10448 10444 10440 10436 10432 10428 10424 10421 10417 10413 10410 10407 10404 10403 10401 10399 10397 10396 10394 10393 10391 10389 10387 10386 10385 10384 10383 10384 10384 10384 10383 10383 10384 10386 10388 10389 10391 10392 10395 10397 10400 10404 10408 10413 10420 10427 10434 10441 10448 10456 10464 10472 10480 10488 10496 10504 10513 10522 10530 10538 10544 10551 10559 10566 10574
10545 10541 10537 10533 10529 10524 10520 10515 10511 10507 10502 10497 10493 10488 10483 10478 10474 10469 10464 10460 10455 10451 10447 10444 10440 10436 10432 10428 10424 10420 10416 10412 10409 10405 10402 10400 10399 10397 10395 10393 10392 10391 10390 10388 10386 10384 10383 10382 10381 10381 10381 10382 10382 10382 10383 10384 10386 10388 10390 10391 10393 10395 10398 10401 10405 10411 10417 10424 10431 10437 10444 10452 10459 10467 10475 10483 10490 10498 10507 10516 10525 10532 10539 10546 10553 10560 10568
10545 10541 10537 10532 10528 10524 10519 10515 10510 10505 10501 10496 10491 10487 10482 10478 10473 10468 10463 10459 10455 10451 10447 10443 10439 10435 10431 10427 10423 10419 10415 10411 10408 10404 10400 10397 10396 10394 10392 10390 10389 10388 10387 10386 10384 10382 10381 10380 10379 10379 10379 10379 10380 10381 10381 10382 10384 10386 10388 10390 10392 10394 10396 10399 10403 10408 10414 10421 10427 10433 10439 10447 10454 10462 10470 10477 10485 10493 10501 10510 10519 10526 10533 10540 10547 10554 10561
10544 10540 10536 10531 10527 10523 10519 10514 10510 10505 10500 10495 10490 10485 10481 10476 10472 10467 10462 10458 10454 10449 10445 10442 10438 10434 10430 10426 10422 10418 10415 10411 10407 10403 10398 10396 10394 10392 10389 10387 10386 10385 10384 10383 10382 10380 10379 10377 10377 10376 10376 10376 10377 10379 10379 10380 10382 10384 10386 10388 10390 10392 10394 10397 10400 10405 10411 10417 10422 10428 10435 10442 10449 10456 10464 10472 10479 10487 10495 10504 10512 10519 10526 10533 10540 10547 10554
10543 10539 10535 10531 10527 10522 10518 10514 10510 10505 10500 10494 10489 10484 10479 10475 10470 10466 10461 10457 10452 10448 10444 10440 10436 10432 10428 10425 10421 10417 10414 10410 10407 10402 10398 10395 10392 10390 10387 10384 10382 10381 10380 10379 10378 10378 10376 10375 10373 10373 10373 10373 10374 10376 10377 10378 10379 10381 10383 10386 10388 10390 10392 10395 10398 10402 10408 10413 10419 10424 10430 10437 10444 10451 10458 10466 10473 10481 10488 10497 10505 10512 10519 10526 10534 10540 10547
10542 10538 10534 10530 10526 10522 10518 10513 10509 10504 10500 10494 10489 10483 10478 10473 10468 10464 10460 10456 10452 10447 10443 10439 10435 10431 10427 10423 10419 10415 10411 10408 10404 10400 10395 10392 10389 10387 10384 10381 10379 10376 10375 10375 10375 10374 10373 10372 10370 10369 10369 10370 10371 10372 10374 10375 10376 10378 10380 10383 10385 10387 10390 10393 10396 10399 10404 10409 10415 10420 10425 10432 10438 10445 10452 10460 10467 10475 10482 10490 10498 10505 10512 10519 10526 10533 10540
10541 10538 10534 10530 10526 10522 10517 10513 10508 10504 10499 10495 10490 10484 10479 10474 10468 10462 10457 10454 10450 10447 10442 10437 10433 10429 10425 10421 10417 10414 10409 10405 10400 10396 10391 10388 10386 10384 10381 10379 10376 10373 10372 10371 10370 10370 10369 10369 10367 10366 10365 10366 10367 10369 10370 10372 10373 10375 10377 10379 10381 10384 10386 10389 10393 10397 10401 10406 10411 10416 10421 10427 10433 10439 10446 10453 10461 10468 10475 10483 10490 10498 10504 10511 10518 10525 10532
10541 10537 10533 10529 10526 10521 10517 10513 10508 10504 10499 10495 10490 10485 10479 10474 10468 10463 10457 10452 10448 10444 10440 10435 10431 10426 10422 10418 10415 10411 10406 10401 10397 10392 10388 10385 10383 10380 10378 10375 10372 10370 10368 10366 10365 10365 10365 10365 10365 10363 10362 10362 10364 10365 10367 10368 10370 10372 10374 10376 10378 10380 10383 10386 10389 10394 10399 10403 10407 10411 10416 10422 10428 10434 10440 10447 10454 10462 10469 10476 10483 10490 10497 10504 10511 10517 10524
10540 10536 10532 10529 10525 10521 10517 10512 10508 10503 10498 10493 10488 10483 10477 10471 10466 10462 10457 10452 10447 10442 10438 10433 10428 10424 10419 10415 10411 10407 10402 10397 10393 10389 10384 10381 10378 10375 10373 10370 10368 10365 10363 10362 10361 10361 10361 10362 10362 10361 10360 10360 10360 10362 10363 10364 10366 10368 10370 10372 10374 10376 10379 10382 10385 10389 10394 10400 10404 10407 10411 10417 10423 10429 10435 10441 10448 10455 10462 10468 10475 10483 10490 10497 10503 10510 10516
10539 10535 10532 10528 10524 10520 10516 10511 10507 10502 10496 10491 10485 10479 10474 10469 10464 10460 10456 10451 10446 10440 10435 10430 10425 10421 10416 10411 10407 10402 10397 10392 10387 10383 10378 10375 10372 10369 10367 10365 10363 10361 10359 10357 10356 10356 10357 10358 10358 10358 10358 10357 10357 10358 10359 10361 10362 10363 10366 10368 10371 10373 10375 10378 10381 10384 10389 10395 10400 10404 10408 10412 10417 10423 10429 10435 10442 10448 10455 10461 10468 10475 10482 10489 10495 10502 10508
10538 10535 10531 10527 10523 10519 10514 10510 10505 10500 10495 10489 10484 10478 10473 10468 10463 10460 10455 10450 10443 10437 10431 10425 10420 10416 10411 10406 10401 10396 10392 10387 10382 10377 10373 10370 10368 10366 10364 10361 10360 10358 10356 10354 10353 10352 10353 10353 10354 10354 10354 10354 10354 10354 10355 10356 10358 10359 10361 10363 10366 10368 10370 10373 10376 10380 10384 10389 10395 10400 10404 10408 10413 10417 10423 10429 10436 10442 10448 10454 10461 10467 10474 10480 10487 10493 10499
10537 10534 10530 10526 10522 10518 10513 10508 10504 10499 10494 10489 10485 10480 10475 10470 10465 10461 10455 10448 10441 10434 10428 10422 10416 10411 10406 10402 10397 10392 10387 10383 10378 10373 10370 10367 10365 10363 10360 10358 10356 10355 10353 10351 10350 10349 10349 10349 10350 10350 10351 10351 10351 10351 10351 10352 10353 10355 10356 10358 10360 10363 10366 10368 10371 10375 10378 10383 10388 10394 10399 10404 10408 10413 10417 10423 10429 10435 10441 10447 10454 10460 10466 10472 10478 10484 10490
10536 10532 10529 10525 10521 10516 10511 10507 10502 10498 10493 10488 10484 10479 10475 10470 10464 10459 10452 10445 10439 10432 10426 10420 10414 10408 10403 10398 10393 10388 10383 10378 10374 10370 10366 10363 10361 10359 10357 10354 10353 10351 10349 10348 10347 10346 10345 10345 10346 10346 10347 10348 10348 10347 10348 10348 10349 10351 10352 10353 10355 10358 10360 10364 10367 10370 10373 10377 10382 10388 10393 10398 10403 10408 10412 10417 10422 10428 10434 10440 10446 10452 10458 10464 10470 10476 10482
10535 10531 10527 10523 10519 10515 10510 10506 10501 10497 10492 10487 10482 10477 10472 10466 10460 10454 10448 10442 10436 10429 10423 10417 10410 10404 10399 10394 10389 10384 10379 10375 10371 10366 10363 10360 10358 10355 10353 10351 10349 10347 10346 10345 10344 10343 10342 10341 10342 10342 10343 10344 10344 10344 10344 10345 10346 10347 10348 10349 10350 10353 10356 10359 10362 10366 10369 10372 10376 10381 10387 10391 10396 10402 10407 10412 10416 10421 10427 10432 10438 10445 10451 10457 10462 10468 10473